Zurück zum Katalog

SL-14 DEB

AktivPO
NORAD 45337·DEBRIS·🇷🇺 Russia

Gestartet Aug 15, 1991 von Plesetsk Cosmodrome

Loading…

Nächste Überflüge (nächste 24 Stunden)

TLE

AktuellSource: Space-Track

Epoche: Sep 14, 2026, 13:02 UTC

1 45337U 91056CB  26257.54346142  .00000815  00000-0  21975-2 0  9994
2 45337  82.5737  95.9458 0042824 110.8889 249.6824 13.13142192313088

Verfolge SL-14 DEB in Echtzeit mit AllMySat

Download on the App Store